Regional Weather Roundup
Issued by NWS

Home | Current Version | Previous Version | Graphics & Text | Print | Product List | Glossary On
Versions: 1 2 3 4 5 6 7 8 9 10 11 12 13 14 15 16 17 18 19 20 21 22 23 24 25 26 27 28 29 30 31 32 33 34 35 36 37 38 39 40 41 42 43 44 45 46 47 48 49 50
000
ASUS44 KMEG 270200
RWRTN
TENNESSEE HOURLY STATE WEATHER ROUNDUP
NATIONAL WEATHER SERVICE MEMPHIS TN
800 PM CST WED NOV 26 2014

TNZ002-004-019-021-049-052-054-088>092-270300-
WEST TENNESSEE

CITY           SKY/WX    TMP DP  RH WIND       PRES   REMARKS
MEMPHIS INTL   MOCLDY    43  34  70 SW3       30.14R
NWS MEMPHIS      N/A     41 N/A N/A MISG        N/A
JACKSON        CLOUDY    42  33  70 W8        30.12R
DYERSBURG      CLOUDY    39  27  60 W3        30.14R
UNION CITY     MOCLDY    36  34  93 W9        30.08R WCI  29
PARIS          MOCLDY    36  32  87 W12       30.07R WCI  27
LEXINGTON      CLEAR     39  32  75 W10       30.07R WCI  32
SAVANNAH       CLEAR     43  32  65 NW8       30.11R
$$

TNZ008-025-027-028-033-062-065-066-270300-
NORTH MIDDLE TENNESSEE

CITY           SKY/WX    TMP DP  RH WIND       PRES   REMARKS
NASHVILLE      CLOUDY    41  39  93 CALM      30.02F
CLARKSVILLE    CLOUDY    40  38  93 CALM      30.02S
COOKEVILLE     CLOUDY    41  37  87 W3        30.02S
CROSSVILLE     LGT RAIN  40  31  70 W6        30.01R
$$

TNZ061-075-076-078-094-096-097-270300-
SOUTH MIDDLE TENNESSEE

CITY           SKY/WX    TMP DP  RH WIND       PRES   REMARKS
TULLAHOMA      MOCLDY    41  36  81 SW3       30.02F
WINCHESTER     CLOUDY    43  37  81 SW3       30.03F
SHELBYVILLE    CLOUDY    45  39  81 W10       30.04R
$$

TNZ017-018-042-046-047-270300-
NORTHEAST TENNESSEE

CITY           SKY/WX    TMP DP  RH WIND       PRES   REMARKS
TRI CITIES     CLOUDY    37  36  96 CALM      30.00F
ELIZABETHTON   CLOUDY    34  34 100 CALM      30.01F
$$

TNZ012-013-036-069-073-074-270300-
CENTRAL EAST TENNESSEE

CITY           SKY/WX    TMP DP  RH WIND       PRES   REMARKS
KNOXVILLE      CLOUDY    44  28  53 S5        30.01F
OAK RIDGE      CLOUDY    46  25  43 CALM      30.02S
GATLINBURG     CLOUDY    41  21  45 CALM      30.00F
$$

TNZ083-085-099-270300-
SOUTHEAST TENNESSEE

CITY           SKY/WX    TMP DP  RH WIND       PRES   REMARKS
CHATTANOOGA    LGT RAIN  50  31  48 SW13      30.05R
$$

SKY/WX REPORTED AS FAIR MEANS FEW OR NO CLOUDS BELOW
12 THOUSAND FEET.



USA.gov is the U.S. government's official web portal to all federal, state and local government web resources and services.